Location: Holyhead Bay
(53.3667°N, 4.6667°W)
Time: 18:47:55
(UTC+00:00)

Cosmos 724 - Pass Details

Date: 24 November 2020
Orbit: 849 x 946 km, 65.6° (Epoch: 16 January)

Event Time Altitude Azimuth Distance (km) Brightness Sun altitude
Rises 17:23:25 0° 211° (SSW) 3,454 8.3 -10.5°
Reaches altitude 10° 17:25:52 10° 209° (SSW) 2,532 7.4 -10.8°
Maximum altitude 17:31:42 69° 127° (SE) 958 4.4 -11.7°
Enters shadow 17:37:06 13° 46° (NE) 2,379 6.0 -12.4°
